• In Portugal
  • List of Countries
  • For 7 days
  • Water Temperature
  • Satellite Maps
  • Weather Map
  • Weather Widgets
  • user-avatar
    Login

    Hourly Weather Mazari Sharif

    Today, 22 January, Monday

    Time Temperature Precipitation Wind Pressure Humidity
    00:00 +2°C° 0 mm 2 mps 653 mmHg 47%
    01:00 +2°C° 0 mm 2 mps 653 mmHg 49%
    02:00 +1°C° 0 mm 2 mps 653 mmHg 51%
    03:00 +2°C° 0 mm 1 mps 653 mmHg 52%
    04:00 +1°C° 0 mm 1 mps 653 mmHg 55%
    05:00 +1°C° 0 mm 1 mps 654 mmHg 56%
    06:00 +1°C° 0 mm 1 mps 654 mmHg 57%
    07:00 +1°C° 0 mm 1 mps 654 mmHg 58%
    08:00 +2°C° 0 mm 1 mps 655 mmHg 53%
    09:00 +4°C° 0 mm 1 mps 655 mmHg 48%
    10:00 +5°C° 0 mm 1 mps 655 mmHg 43%
    11:00 +5°C° 0 mm 1 mps 655 mmHg 41%
    12:00 +5°C° 0 mm 2 mps 655 mmHg 40%
    13:00 +6°C° 0 mm 2 mps 655 mmHg 39%
    14:00 +5°C° 0 mm 2 mps 655 mmHg 40%
    15:00 +6°C° 0 mm 1 mps 655 mmHg 42%
    16:00 +6°C° 0 mm 1 mps 655 mmHg 43%
    17:00 +5°C° 0 mm 1 mps 655 mmHg 46%
    18:00 +4°C° 0 mm 1 mps 655 mmHg 50%
    19:00 +2°C° 0 mm 0 mps 655 mmHg 53%
    20:00 +2°C° 0 mm 0 mps 655 mmHg 54%
    21:00 +3°C° 0 mm 1 mps 655 mmHg 54%
    22:00 +3°C° 0 mm 1 mps 655 mmHg 54%
    23:00 +2°C° 0 mm 1 mps 655 mmHg 54%

    Tomorrow, 23 January, Tuesday

    Time Temperature Precipitation Wind Pressure Humidity
    00:00 +2°C° 0 mm 1 mps 654 mmHg 53%
    01:00 +2°C° 0 mm 1 mps 654 mmHg 53%
    02:00 +2°C° 0 mm 1 mps 654 mmHg 52%
    03:00 +2°C° 0 mm 1 mps 654 mmHg 52%
    04:00 +1°C° 0 mm 2 mps 654 mmHg 51%
    05:00 +1°C° 0 mm 2 mps 654 mmHg 50%
    06:00 +1°C° 0 mm 2 mps 654 mmHg 49%
    07:00 +1°C° 0 mm 2 mps 654 mmHg 48%
    08:00 +3°C° 0 mm 2 mps 654 mmHg 43%
    09:00 +4°C° 0 mm 3 mps 655 mmHg 37%
    10:00 +7°C° 0 mm 3 mps 655 mmHg 32%
    11:00 +8°C° 0 mm 3 mps 654 mmHg 30%
    12:00 +9°C° 0 mm 3 mps 654 mmHg 28%
    13:00 +10°C° 0 mm 3 mps 653 mmHg 26%
    14:00 +9°C° 0 mm 3 mps 653 mmHg 28%
    15:00 +9°C° 0 mm 3 mps 653 mmHg 30%
    16:00 +8°C° 0 mm 3 mps 652 mmHg 32%
    17:00 +7°C° 0 mm 2 mps 652 mmHg 33%
    18:00 +6°C° 0 mm 2 mps 652 mmHg 35%
    19:00 +5°C° 0 mm 2 mps 652 mmHg 37%
    20:00 +5°C° 0 mm 2 mps 652 mmHg 36%
    21:00 +4°C° 0 mm 3 mps 652 mmHg 35%
    22:00 +4°C° 0 mm 3 mps 652 mmHg 33%
    23:00 +4°C° 0 mm 3 mps 652 mmHg 32%

    Day after tomorrow, 24 January, Wednesday

    Time Temperature Precipitation Wind Pressure Humidity
    00:00 +4°C° 0 mm 3 mps 652 mmHg 31%
    01:00 +4°C° 0 mm 2 mps 651 mmHg 29%
    02:00 +4°C° 0 mm 2 mps 651 mmHg 28%
    03:00 +4°C° 0 mm 2 mps 651 mmHg 27%
    04:00 +4°C° 0 mm 2 mps 651 mmHg 26%
    05:00 +4°C° 0 mm 2 mps 651 mmHg 25%
    06:00 +4°C° 0 mm 2 mps 651 mmHg 24%
    07:00 +4°C° 0 mm 2 mps 651 mmHg 23%
    08:00 +6°C° 0 mm 2 mps 652 mmHg 20%
    09:00 +9°C° 0 mm 1 mps 653 mmHg 17%
    10:00 +11°C° 0 mm 1 mps 654 mmHg 14%
    11:00 +12°C° 0 mm 1 mps 653 mmHg 13%
    12:00 +12°C° 0 mm 2 mps 653 mmHg 13%
    13:00 +13°C° 0 mm 2 mps 653 mmHg 12%
    14:00 +13°C° 0 mm 2 mps 653 mmHg 15%
    15:00 +12°C° 0 mm 2 mps 653 mmHg 17%
    16:00 +10°C° 0 mm 2 mps 653 mmHg 19%
    17:00 +10°C° 0 mm 1 mps 652 mmHg 20%
    18:00 +8°C° 0 mm 1 mps 652 mmHg 22%
    19:00 +7°C° 0 mm 1 mps 652 mmHg 24%
    20:00 +7°C° 0 mm 1 mps 653 mmHg 23%
    21:00 +6°C° 0 mm 1 mps 653 mmHg 23%
    22:00 +6°C° 0 mm 1 mps 653 mmHg 22%
    23:00 +6°C° 0 mm 1 mps 653 mmHg 22%

    25 January, Thursday

    Time Temperature Precipitation Wind Pressure Humidity
    00:00 +6°C° 0 mm 1 mps 653 mmHg 22%
    01:00 +6°C° 0 mm 1 mps 653 mmHg 22%
    02:00 +5°C° 0 mm 1 mps 653 mmHg 23%
    03:00 +5°C° 0 mm 1 mps 653 mmHg 24%
    04:00 +5°C° 0 mm 1 mps 654 mmHg 25%
    05:00 +5°C° 0 mm 1 mps 654 mmHg 27%
    06:00 +4°C° 0 mm 2 mps 655 mmHg 28%
    07:00 +3°C° 0 mm 2 mps 655 mmHg 30%
    08:00 +5°C° 0 mm 2 mps 656 mmHg 28%
    09:00 +7°C° 0 mm 2 mps 657 mmHg 26%
    10:00 +8°C° 0 mm 2 mps 657 mmHg 24%
    11:00 +8°C° 0 mm 2 mps 657 mmHg 25%
    12:00 +9°C° 0 mm 2 mps 657 mmHg 26%
    13:00 +9°C° 0 mm 3 mps 657 mmHg 26%
    14:00 +8°C° 0 mm 2 mps 657 mmHg 28%
    15:00 +8°C° 0 mm 2 mps 657 mmHg 30%
    16:00 +8°C° 0 mm 2 mps 657 mmHg 31%
    17:00 +7°C° 0 mm 2 mps 658 mmHg 35%
    18:00 +7°C° 0 mm 1 mps 658 mmHg 38%
    19:00 +6°C° 0 mm 1 mps 658 mmHg 41%
    20:00 +5°C° 0 mm 1 mps 658 mmHg 42%
    21:00 +5°C° 0 mm 1 mps 658 mmHg 42%
    22:00 +5°C° 0 mm 1 mps 658 mmHg 43%
    23:00 +4°C° 0 mm 1 mps 658 mmHg 44%

    26 January, Friday

    Time Temperature Precipitation Wind Pressure Humidity
    00:00 +4°C° 0 mm 1 mps 658 mmHg 45%
    01:00 +3°C° 0 mm 1 mps 658 mmHg 45%
    02:00 +3°C° 0 mm 1 mps 658 mmHg 45%
    03:00 +3°C° 0 mm 1 mps 658 mmHg 45%
    04:00 +2°C° 0 mm 1 mps 658 mmHg 45%
    05:00 +2°C° 0 mm 1 mps 658 mmHg 45%
    06:00 +2°C° 0 mm 1 mps 658 mmHg 44%
    07:00 +2°C° 0 mm 1 mps 658 mmHg 43%
    08:00 +4°C° 0 mm 1 mps 659 mmHg 38%
    09:00 +6°C° 0 mm 1 mps 659 mmHg 33%
    10:00 +8°C° 0 mm 1 mps 660 mmHg 28%
    11:00 +8°C° 0 mm 1 mps 659 mmHg 27%
    12:00 +8°C° 0 mm 2 mps 659 mmHg 27%
    13:00 +8°C° 0 mm 2 mps 658 mmHg 26%
    14:00 +8°C° 0 mm 2 mps 658 mmHg 27%
    15:00 +8°C° 0 mm 2 mps 658 mmHg 28%
    16:00 +7°C° 0 mm 2 mps 658 mmHg 29%
    17:00 +6°C° 0 mm 2 mps 658 mmHg 32%
    18:00 +6°C° 0 mm 1 mps 658 mmHg 36%
    19:00 +5°C° 0 mm 1 mps 658 mmHg 39%
    20:00 +5°C° 0 mm 1 mps 657 mmHg 39%
    21:00 +4°C° 0 mm 1 mps 657 mmHg 40%
    22:00 +4°C° 0 mm 1 mps 657 mmHg 40%
    23:00 +4°C° 0 mm 1 mps 657 mmHg 40%

    27 January, Saturday

    Time Temperature Precipitation Wind Pressure Humidity
    00:00 +3°C° 0 mm 1 mps 657 mmHg 40%
    01:00 +3°C° 0 mm 1 mps 656 mmHg 40%
    02:00 +3°C° 0 mm 1 mps 656 mmHg 40%
    03:00 +3°C° 0 mm 1 mps 656 mmHg 40%
    04:00 +3°C° 0 mm 1 mps 656 mmHg 40%
    05:00 +3°C° 0 mm 1 mps 656 mmHg 39%
    06:00 +2°C° 0 mm 1 mps 656 mmHg 39%
    07:00 +2°C° 0 mm 1 mps 656 mmHg 38%
    08:00 +4°C° 0 mm 1 mps 657 mmHg 34%
    09:00 +6°C° 0 mm 1 mps 657 mmHg 29%
    10:00 +8°C° 0 mm 1 mps 657 mmHg 25%
    11:00 +7°C° 0 mm 2 mps 657 mmHg 25%
    12:00 +8°C° 0 mm 2 mps 656 mmHg 24%
    13:00 +8°C° 0 mm 2 mps 656 mmHg 24%
    14:00 +8°C° 0 mm 2 mps 656 mmHg 25%
    15:00 +8°C° 0 mm 2 mps 656 mmHg 27%
    16:00 +7°C° 0 mm 2 mps 656 mmHg 28%
    17:00 +6°C° 0 mm 2 mps 656 mmHg 31%
    18:00 +6°C° 0 mm 1 mps 655 mmHg 35%
    19:00 +5°C° 0 mm 1 mps 655 mmHg 38%
    20:00 +5°C° 0 mm 1 mps 655 mmHg 38%
    21:00 +4°C° 0 mm 1 mps 655 mmHg 38%
    22:00 +4°C° 0 mm 1 mps 655 mmHg 38%
    23:00 +4°C° 0 mm 1 mps 655 mmHg 38%
    Show more